Location: Sternwarte_Laufen
(47.9344°N, 12.9346°E)
Time: 01:57:26
(UTC+02:00)

Envisat - Pass Details

Date: 19 May 2026
Orbit: 761 x 763 km, 98.4° (Epoch: 7 June)

Event Time Altitude Azimuth Distance (km) Brightness Sun altitude
Rises 03:19:39 0° 19° (NNE) 3,235 7.8 -15.9°
Reaches altitude 10° 03:22:04 10° 26° (NNE) 2,304 6.8 -15.7°
Maximum altitude 03:26:56 45° 98° (E) 1,039 3.9 -15.2°
Enters shadow 03:31:29 11° 170° (S) 2,188 5.0 -14.8°
